Previsão horária em Aalsmeer

Hoje, 16 Janeiro, Sábado

Tempo Temperatura Precipitação Vento Pressão Humidade
00:00 -1°C° 0 mm 2 m/s 772 mmHg 81%
01:00 -1°C° 0 mm 2 m/s 772 mmHg 82%
02:00 -1°C° 0 mm 2 m/s 771 mmHg 82%
03:00 -1°C° 0 mm 2 m/s 771 mmHg 82%
04:00 -1°C° 0 mm 2 m/s 770 mmHg 84%
05:00 -1°C° 0 mm 3 m/s 770 mmHg 85%
06:00 -1°C° 0 mm 3 m/s 770 mmHg 87%
07:00 -2°C° 0 mm 4 m/s 769 mmHg 84%
08:00 -2°C° 0 mm 5 m/s 769 mmHg 82%
09:00 -2°C° 0 mm 5 m/s 768 mmHg 79%
10:00 -1°C° 0 mm 5 m/s 767 mmHg 74%
11:00 -2°C° 0 mm 6 m/s 767 mmHg 69%
12:00 -1°C° 0 mm 6 m/s 766 mmHg 64%
13:00 -2°C° 0.3 mm 6 m/s 765 mmHg 72%
14:00 -3°C° 0.3 mm 6 m/s 765 mmHg 81%
15:00 -3°C° 0.3 mm 6 m/s 764 mmHg 89%
16:00 -3°C° 0.7 mm 6 m/s 763 mmHg 91%
17:00 -3°C° 0.7 mm 6 m/s 763 mmHg 93%
18:00 -3°C° 0.7 mm 6 m/s 762 mmHg 96%
19:00 -2°C° 0.2 mm 5 m/s 762 mmHg 96%
20:00 -1°C° 0.2 mm 5 m/s 762 mmHg 96%
21:00 -1°C° 0.2 mm 5 m/s 762 mmHg 97%
22:00 -1°C° 0.1 mm 4 m/s 762 mmHg 97%
23:00 0°C° 0.1 mm 4 m/s 762 mmHg 97%

Amanhã, 17 Janeiro, Domingo

Tempo Temperatura Precipitação Vento Pressão Humidade
00:00 0°C° 0.1 mm 4 m/s 762 mmHg 98%
01:00 +1°C° 0.1 mm 4 m/s 761 mmHg 96%
02:00 +1°C° 0.1 mm 4 m/s 761 mmHg 94%
03:00 +3°C° 0.1 mm 4 m/s 761 mmHg 92%
04:00 +3°C° 0 mm 4 m/s 761 mmHg 91%
05:00 +3°C° 0 mm 4 m/s 762 mmHg 90%
06:00 +3°C° 0 mm 4 m/s 762 mmHg 89%
07:00 +2°C° 0.3 mm 5 m/s 762 mmHg 90%
08:00 +2°C° 0.3 mm 5 m/s 763 mmHg 91%
09:00 +2°C° 0.3 mm 5 m/s 763 mmHg 92%
10:00 +3°C° 0.1 mm 5 m/s 763 mmHg 87%
11:00 +3°C° 0.1 mm 5 m/s 764 mmHg 83%
12:00 +5°C° 0.1 mm 5 m/s 764 mmHg 79%
13:00 +5°C° 0 mm 5 m/s 764 mmHg 80%
14:00 +3°C° 0 mm 5 m/s 765 mmHg 81%
15:00 +4°C° 0 mm 4 m/s 765 mmHg 82%
16:00 +4°C° 0 mm 4 m/s 765 mmHg 84%
17:00 +3°C° 0 mm 4 m/s 766 mmHg 85%
18:00 +3°C° 0 mm 4 m/s 766 mmHg 87%
19:00 +3°C° 0 mm 4 m/s 767 mmHg 87%
20:00 +3°C° 0 mm 4 m/s 767 mmHg 87%
21:00 +3°C° 0 mm 4 m/s 767 mmHg 87%
22:00 +1°C° 0 mm 4 m/s 767 mmHg 88%
23:00 +1°C° 0 mm 4 m/s 767 mmHg 90%

Depois de amanhã, 18 Janeiro, Segunda-feira

Tempo Temperatura Precipitação Vento Pressão Humidade
00:00 +1°C° 0 mm 4 m/s 767 mmHg 92%
01:00 +1°C° 0 mm 4 m/s 767 mmHg 93%
02:00 +1°C° 0 mm 4 m/s 767 mmHg 93%
03:00 +1°C° 0 mm 4 m/s 767 mmHg 93%
04:00 +1°C° 0.1 mm 4 m/s 767 mmHg 92%
05:00 +3°C° 0.1 mm 4 m/s 767 mmHg 91%
06:00 +3°C° 0.1 mm 4 m/s 767 mmHg 89%
07:00 +3°C° 0 mm 4 m/s 766 mmHg 89%
08:00 +2°C° 0 mm 5 m/s 766 mmHg 89%
09:00 +2°C° 0 mm 5 m/s 766 mmHg 88%
10:00 +3°C° 0 mm 5 m/s 766 mmHg 85%
11:00 +3°C° 0 mm 5 m/s 766 mmHg 81%
12:00 +4°C° 0 mm 6 m/s 766 mmHg 77%
13:00 +4°C° 0.1 mm 6 m/s 765 mmHg 78%
14:00 +4°C° 0.1 mm 6 m/s 765 mmHg 80%
15:00 +5°C° 0.1 mm 5 m/s 765 mmHg 81%
16:00 +3°C° 0.1 mm 5 m/s 764 mmHg 83%
17:00 +3°C° 0.1 mm 5 m/s 764 mmHg 84%
18:00 +3°C° 0.1 mm 5 m/s 764 mmHg 86%
19:00 +3°C° 0 mm 5 m/s 764 mmHg 86%
20:00 +2°C° 0 mm 6 m/s 763 mmHg 86%
21:00 +2°C° 0 mm 7 m/s 763 mmHg 85%
22:00 +2°C° 0 mm 6 m/s 762 mmHg 86%
23:00 +1°C° 0 mm 6 m/s 762 mmHg 87%

19 Janeiro, Terça-feira

Tempo Temperatura Precipitação Vento Pressão Humidade
00:00 +1°C° 0 mm 6 m/s 761 mmHg 87%
01:00 +1°C° 0.6 mm 6 m/s 760 mmHg 89%
02:00 +2°C° 0.6 mm 7 m/s 758 mmHg 90%
03:00 +2°C° 0.6 mm 7 m/s 757 mmHg 92%
04:00 +2°C° 2.3 mm 8 m/s 756 mmHg 92%
05:00 +3°C° 2.3 mm 9 m/s 755 mmHg 93%
06:00 +6°C° 2.3 mm 10 m/s 754 mmHg 94%
07:00 +6°C° 0.5 mm 10 m/s 754 mmHg 91%
08:00 +7°C° 0.5 mm 11 m/s 753 mmHg 88%
09:00 +8°C° 0.5 mm 11 m/s 753 mmHg 86%
10:00 +8°C° 0 mm 11 m/s 753 mmHg 83%
11:00 +8°C° 0 mm 11 m/s 754 mmHg 80%
12:00 +8°C° 0 mm 11 m/s 754 mmHg 78%
13:00 +8°C° 0 mm 10 m/s 753 mmHg 78%
14:00 +8°C° 0 mm 10 m/s 753 mmHg 79%
15:00 +8°C° 0 mm 9 m/s 753 mmHg 79%
16:00 +7°C° 0 mm 9 m/s 752 mmHg 80%
17:00 +7°C° 0 mm 9 m/s 752 mmHg 80%
18:00 +7°C° 0 mm 8 m/s 751 mmHg 81%
19:00 +6°C° 0 mm 9 m/s 751 mmHg 79%
20:00 +6°C° 0 mm 9 m/s 750 mmHg 78%
21:00 +6°C° 0 mm 9 m/s 750 mmHg 77%
22:00 +6°C° 0.1 mm 9 m/s 749 mmHg 77%
23:00 +6°C° 0.1 mm 9 m/s 748 mmHg 78%

20 Janeiro, Quarta-feira

Tempo Temperatura Precipitação Vento Pressão Humidade
00:00 +7°C° 0.1 mm 10 m/s 748 mmHg 79%
01:00 +7°C° 0 mm 10 m/s 747 mmHg 77%
02:00 +7°C° 0 mm 10 m/s 747 mmHg 76%
03:00 +7°C° 0 mm 10 m/s 746 mmHg 74%
04:00 +7°C° 0.1 mm 10 m/s 746 mmHg 76%
05:00 +7°C° 0.1 mm 11 m/s 745 mmHg 78%
06:00 +8°C° 0.1 mm 11 m/s 745 mmHg 80%
07:00 +8°C° 0.2 mm 11 m/s 745 mmHg 80%
08:00 +8°C° 0.2 mm 11 m/s 744 mmHg 79%
09:00 +8°C° 0.2 mm 11 m/s 744 mmHg 79%
10:00 +8°C° 0 mm 11 m/s 744 mmHg 78%
11:00 +8°C° 0 mm 11 m/s 743 mmHg 78%
12:00 +8°C° 0 mm 10 m/s 743 mmHg 77%
13:00 +8°C° 0.2 mm 10 m/s 742 mmHg 76%
14:00 +7°C° 0.2 mm 10 m/s 742 mmHg 76%
15:00 +7°C° 0.2 mm 10 m/s 741 mmHg 75%
16:00 +7°C° 1.2 mm 10 m/s 741 mmHg 78%
17:00 +7°C° 1.2 mm 10 m/s 741 mmHg 82%
18:00 +7°C° 1.2 mm 10 m/s 741 mmHg 86%
19:00 +7°C° 1.4 mm 9 m/s 740 mmHg 86%
20:00 +7°C° 1.4 mm 8 m/s 740 mmHg 87%
21:00 +8°C° 1.4 mm 7 m/s 740 mmHg 87%
22:00 +5°C° 1.2 mm 7 m/s 740 mmHg 88%
23:00 +4°C° 1.2 mm 6 m/s 740 mmHg 89%

21 Janeiro, Quinta-feira

Tempo Temperatura Precipitação Vento Pressão Humidade
00:00 +3°C° 1.2 mm 6 m/s 740 mmHg 90%
01:00 +3°C° 0.5 mm 6 m/s 741 mmHg 87%
02:00 +3°C° 0.5 mm 6 m/s 741 mmHg 85%
03:00 +3°C° 0.5 mm 6 m/s 741 mmHg 82%
04:00 +3°C° 0.1 mm 6 m/s 742 mmHg 80%
05:00 +4°C° 0.1 mm 7 m/s 743 mmHg 78%
06:00 +4°C° 0.1 mm 8 m/s 744 mmHg 76%
07:00 +4°C° 0 mm 8 m/s 744 mmHg 75%
08:00 +4°C° 0 mm 8 m/s 745 mmHg 75%
09:00 +4°C° 0 mm 8 m/s 745 mmHg 74%
10:00 +3°C° 0.1 mm 9 m/s 746 mmHg 74%
11:00 +5°C° 0.1 mm 10 m/s 746 mmHg 74%
12:00 +5°C° 0.1 mm 10 m/s 746 mmHg 73%
13:00 +5°C° 0.3 mm 10 m/s 746 mmHg 73%
14:00 +5°C° 0.3 mm 9 m/s 746 mmHg 73%
15:00 +5°C° 0.3 mm 8 m/s 746 mmHg 72%
16:00 +5°C° 0.1 mm 8 m/s 747 mmHg 75%
17:00 +4°C° 0.1 mm 7 m/s 747 mmHg 77%
18:00 +4°C° 0.1 mm 6 m/s 747 mmHg 80%
19:00 +4°C° 0.1 mm 6 m/s 748 mmHg 81%
20:00 +3°C° 0.1 mm 5 m/s 748 mmHg 82%
21:00 +3°C° 0.1 mm 5 m/s 748 mmHg 84%
22:00 +3°C° 0 mm 5 m/s 748 mmHg 85%
23:00 +3°C° 0 mm 4 m/s 749 mmHg 87%
Mostrar mais